Current Version              Previous Version:    01  02  03  04  05  06  07  08  09  10  11  12  13  14  15  16  17  18  19  20  21  22  23  24  25  26  27  28  29  30  
   31  32  33  34  35  36  37  38  39  40  41  42  43  44  45  46  47  48  49  50  51  52  53  54  55  56  57  58  59  60  

[Printable]
572
ASUS44 KFWD 300603
RWRTX
NORTH TEXAS HOURLY WEATHER ROUNDUP
NATIONAL WEATHER SERVICE FORT WORTH TX
100 AM CDT TUE SEP 30 2014

NOTE: "FAIR" INDICATES FEW OR NO CLOUDS BELOW 12,000 FEET WITH NO
SIGNIFICANT WEATHER AND/OR OBSTRUCTIONS TO VISIBILITY.

TXZ118-119-300700-
DALLAS/FORT WORTH METROPLEX

CITY           SKY/WX    TMP DP  RH WIND       PRES   REMARKS
DFW AIRPORT    PTCLDY    73  63  70 SE5       29.90F
6HR MIN TEMP:  73; 6HR MAX TEMP:  85;

DALLAS LOVE    PTCLDY    74  64  71 SE7       29.90F
6HR MIN TEMP:  74; 6HR MAX TEMP:  84;

FTW MEACHAM    CLEAR     75  64  68 SE6       29.90F
6HR MIN TEMP:  75; 6HR MAX TEMP:  85;

DAL-EXECUTIVE  CLEAR     71  64  78 CALM      29.91F
6HR MIN TEMP:  71; 6HR MAX TEMP:  86;

FTW-ALLIANCE   PTCLDY    73  64  73 SE5       29.90F
6HR MIN TEMP:  72; 6HR MAX TEMP:  83;

FTW-NAS-JRB    CLEAR     79  63  57 SE7       29.95S
6HR MIN TEMP:  79; 6HR MAX TEMP:  88;

FTW-SPINKS     CLEAR     71  63  76 SE5       29.92F
6HR MIN TEMP:  71; 6HR MAX TEMP:  85;

ARLINGTON      CLEAR     71  63  75 CALM      29.91F
6HR MIN TEMP:  71; 6HR MAX TEMP:  85;

GRAND PRAIRIE  CLEAR     74  63  67 SE3       29.92F
6HR MIN TEMP:  74; 6HR MAX TEMP:  85;

ADDISON        CLEAR     75  63  64 E7        29.93S
6HR MIN TEMP:  75; 6HR MAX TEMP:  83;

MESQUITE       CLEAR     70  63  77 CALM      29.91F
6HR MIN TEMP:  70; 6HR MAX TEMP:  83;

LANCASTER      CLEAR     70  61  73 CALM      29.92S
6HR MIN TEMP:  69; 6HR MAX TEMP:  83;

$$

TXZ091>094-102>105-117-120-121-131>134-300700-
NORTH CENTRAL TEXAS

CITY           SKY/WX    TMP DP  RH WIND       PRES   REMARKS
SHRMAN/DENISON CLEAR     73  60  62 SE8       29.94S
6HR MIN TEMP:  70; 6HR MAX TEMP:  80;

GAINESVILLE    CLEAR     70  61  73 E3        29.95S
6HR MIN TEMP:  68; 6HR MAX TEMP:  81;

BOWIE          CLEAR     68  62  80 CALM      29.93S
6HR MIN TEMP:  68; 6HR MAX TEMP:  80;

BRIDGEPORT     CLEAR     70  59  68 CALM      29.94S
6HR MIN TEMP:  70; 6HR MAX TEMP:  84;

DECATUR        CLEAR     70  60  72 SE5       29.93S
6HR MIN TEMP:  70; 6HR MAX TEMP:  82;

DENTON         CLEAR     74  63  68 E3        29.91F
6HR MIN TEMP:  73; 6HR MAX TEMP:  83;

MCKINNEY       CLEAR     68  59  73 CALM      29.92S
6HR MIN TEMP:  68; 6HR MAX TEMP:  82;

GREENVILLE     CLEAR     66  59  77 CALM      29.92S
ROCKWALL       CLEAR     70  64  79 E5        29.90F
6HR MIN TEMP:  70; 6HR MAX TEMP:  82;

TERRELL        CLEAR     70  65  84 NE3       29.91F
6HR MIN TEMP:  70; 6HR MAX TEMP:  83;

WAXAHACHIE     CLEAR     71  62  75 CALM      29.93S
6HR MIN TEMP:  71; 6HR MAX TEMP:  83;

CLEBURNE       CLEAR     73  66  78 E8        29.93S
GRANBURY       CLEAR     73  61  65 CALM      29.92F
6HR MIN TEMP:  68; 6HR MAX TEMP:  85;

$$

TXZ083>090-098>101-113>116-127>130-139>142-154-155-300700-
WESTERN NORTH TEXAS

CITY           SKY/WX    TMP DP  RH WIND       PRES   REMARKS
WICHITA FALLS  CLEAR     72  60  66 SE12      29.91S
6HR MIN TEMP:  70; 6HR MAX TEMP:  83;

WF-KICKAPOO    CLEAR     69  58  68 SE5       29.92S
6HR MIN TEMP:  69; 6HR MAX TEMP:  83;

VERNON         CLEAR     73  55  52 SE12      29.91S
6HR MIN TEMP:  73; 6HR MAX TEMP:  82;

ABILENE        CLEAR     68  55  63 SE7       29.94S
6HR MIN TEMP:  68; 6HR MAX TEMP:  84;

ABILENE-DYESS  CLEAR     65  55  69 S8        29.92F
6HR MIN TEMP:  65; 6HR MAX TEMP:  84;

BRECKENRIDGE   CLEAR     71  54  55 SE9       29.91F
6HR MIN TEMP:  70; 6HR MAX TEMP:  84;

MINERAL WELLS  CLEAR     70  59  68 SE5       29.91S
6HR MIN TEMP:  69; 6HR MAX TEMP:  83;

STEPHENVILLE   CLEAR     67  56  69 CALM      29.95F
6HR MIN TEMP:  67; 6HR MAX TEMP:  83;

COMANCHE       CLEAR     69  55  60 S3        29.93F
6HR MIN TEMP:  69; 6HR MAX TEMP:  83;

BROWNWOOD      MOCLDY    64  57  77 CALM      29.93F
COLEMAN        CLEAR     69  54  59 CALM      29.94S
6HR MIN TEMP:  68; 6HR MAX TEMP:  83;

BRADY          CLEAR     68  55  64 E5        29.94F
$$

TXZ143>147-156>162-174-175-300700-
CENTRAL TEXAS

CITY           SKY/WX    TMP DP  RH WIND       PRES   REMARKS
WACO           CLEAR     70  60  70 CALM      29.90S
6HR MIN TEMP:  68; 6HR MAX TEMP:  85;

WACO-MCGREGOR  CLEAR     70  52  52 CALM      29.92S
6HR MIN TEMP:  68; 6HR MAX TEMP:  86;

HILLSBORO      CLEAR     74  64  72 E7        29.91S
6HR MIN TEMP:  74; 6HR MAX TEMP:  85;

CORSICANA      CLEAR     74  67  78 E5        29.91F
6HR MIN TEMP:  74; 6HR MAX TEMP:  85;

MEXIA          CLEAR     72  67  85 CALM      29.90S
6HR MIN TEMP:  72; 6HR MAX TEMP:  83;

HEARNE         CLEAR     71  66  83 CALM      29.89S
6HR MIN TEMP:  70; 6HR MAX TEMP:  83;

CAMERON        CLEAR     70  63  76 CALM      29.89S
6HR MIN TEMP:  69; 6HR MAX TEMP:  83;

TEMPLE         CLEAR     66  55  68 CALM      29.90S
6HR MIN TEMP:  66; 6HR MAX TEMP:  84;

KILLEEN        CLEAR     73  61  64 S5        29.91S
KILLEEN-SKYLRK CLEAR     68  57  68 W3        29.89S
6HR MIN TEMP:  66; 6HR MAX TEMP:  84;

FORT HOOD      CLEAR     74  62  66 CALM      29.91S
6HR MIN TEMP:  72; 6HR MAX TEMP:  86;

HAMILTON       CLEAR     67  56  66 S7        29.94S
6HR MIN TEMP:  67; 6HR MAX TEMP:  84;

LAMPASAS       CLEAR     71  63  75 CALM      29.92S
6HR MIN TEMP:  69; 6HR MAX TEMP:  83;

$$

TXZ095>097-106>112-122>126-135>138-148>153-164>167-300700-
EAST TEXAS

CITY           SKY/WX    TMP DP  RH WIND       PRES   REMARKS
PARIS          CLEAR     68  57  68 E6        29.93F
6HR MIN TEMP:  68; 6HR MAX TEMP:  79;

SULPHUR SPRNGS PTCLDY    68  62  80 CALM      29.94F
6HR MIN TEMP:  68; 6HR MAX TEMP:  83;

MOUNT PLEASANT PTCLDY    70  60  72 CALM      29.92F
6HR MIN TEMP:  70; 6HR MAX TEMP:  80;

GILMER         CLEAR     70  64  83 CALM      29.92F
MINEOLA        CLEAR     66  64  94 CALM      29.92S
TYLER          CLOUDY    73  67  81 CALM      29.91S
6HR MIN TEMP:  72; 6HR MAX TEMP:  82;

LONGVIEW       CLEAR     70  66  87 CALM      29.90S
6HR MIN TEMP:  70; 6HR MAX TEMP:  81;

MARSHALL       CLEAR     71  66  85 CALM      29.93S
6HR MIN TEMP:  71; 6HR MAX TEMP:  85;

ATHENS         MOCLDY    68  64  88 CALM      29.90F
PALESTINE      CLEAR     74  69  83 E3        29.91S
JACKSONVILLE   CLEAR     74  67  78 CALM      29.93S
HENDERSON      CLOUDY    70  68  94 CALM      29.91F
6HR MIN TEMP:  69; 6HR MAX TEMP:  81;

NACOGDOCHES    CLEAR     72  66  83 CALM      29.90S
6HR MIN TEMP:  70; 6HR MAX TEMP:  81;

LUFKIN         CLEAR     75  69  81 CALM      29.89S
6HR MIN TEMP:  73; 6HR MAX TEMP:  85;

$$

SUPPLEMENTAL OBSERVATIONS (CENTRAL)

CITY           SKY/WX    TMP DP  RH WIND       PRES   REMARKS
$$

SUPPLEMENTAL OBSERVATIONS (WEST)

CITY           SKY/WX    TMP DP  RH WIND       PRES   REMARKS
$$

SUPPLEMENTAL OBSERVATIONS (EAST)

CITY           SKY/WX    TMP DP  RH WIND       PRES   REMARKS
$$

SUPPLEMENTAL OBSERVATIONS ARE A COLLECTION OF AUTOMATED INSTRUMENTS
THAT ARE MAINTAINED BY A VARIETY OF FEDERAL AND STATE AGENCIES.
CERTAIN ELEMENTS...SUCH AS HUMIDITY VALUES AND SUSTAINED WIND
SPEEDS...MAY BE APPROXIMATED.